Tracking 17856 objects as of 27-September-2016
HD Live streaming from Space Station
objects crossing your sky now

ECHOSTAR 1

Track ECHOSTAR 1 now!
ECHOSTAR 1 is classified as:


NORAD ID: 23754
Int'l Code: 1995-073A
Perigee: 35,780.6 km
Apogee: 35,807.9 km
Inclination: 0.3 °
Period: 1,436.1 minutes
Semi major axis: 42165 km
RCS: 30.9641 m2 (large)
Launch date: December 28, 1995
Source: United States (US)
Launch site: Xichang Space Center, China (XSC)

Western United States to Central/Mountain region; 16 Ku-band transponders
Your satellite tracking list
Your tracking list is empty





NASA's NSSDC Master Catalog

Two Line Element Set (TLE):
1 23754U 95073A   16270.27855546 -.00000273  00000-0  00000+0 0  9995
2 23754   0.2560  91.3716 0003239 106.5565 190.6169  1.00270742 75847
Source of the keplerian elements: AFSPC

N2YO: 674